Regional Weather Roundup
Issued by NWS

Home | Current Version | Previous Version | Text Only | Print | Product List | Glossary On
Versions: 1 2 3 4 5 6 7 8 9 10 11 12 13 14 15 16 17 18 19 20 21 22 23 24 25 26 27 28 29 30 31 32 33 34 35 36 37 38 39 40 41 42 43 44 45 46 47 48 49 50
434
ASUS44 KJAN 070510
RWRMS

MISSISSIPPI HOURLY WEATHER ROUNDUP
NATIONAL WEATHER SERVICE JACKSON MS
1100 PM CST SAT FEB 06 2016

NOTE: "FAIR: INDICATES FEW OR NO CLOUDS BELOW 12,000 FEET WITH NO
SIGNIFICANT WEATHER AND/OR OBSTRUCTIONS TO VISIBILITY.

MSZ001>002-007>008-010>013-018>021-025>028-034>036-070600-
NORTHWEST MISSISSIPPI

CITY           SKY/WX    TMP DP  RH WIND       PRES   REMARKS
CLEVELAND      FAIR      37  36  99 CALM      30.31F
GREENWOOD      CLEAR     33  27  78 CALM      30.32F
GREENVILLE     CLEAR     38  30  73 CALM      30.31F
OLIVE BRANCH   CLEAR     34  28  80 S3        30.31S
OXFORD         FAIR      28  23  80 CALM      30.32F
TUNICA         CLEAR     32  30  93 CALM      30.32F
$$

MSZ003>006-009-014>017-022>024-029>033-037>039-070600-
NORTHEAST MISSISSIPPI

CITY           SKY/WX    TMP DP  RH WIND       PRES   REMARKS
COLUMBUS AFB   CLEAR     31  28  88 CALM      30.29F
CORINTH        FAIR      32  27  80 CALM      30.30S
GOLDN TRIANGLE CLEAR     36  25  64 CALM      30.29F
STARKVILLE     FAIR      30  27  86 CALM      30.31F
TUPELO         CLEAR     34  27  75 CALM      30.31S
$$

MSZ040-058-070600-
CENTRAL MISSISSIPPI

CITY           SKY/WX    TMP DP  RH WIND       PRES   REMARKS
JACKSON INTL   CLEAR     35  27  72 CALM      30.31F
JACKSON HAWKNS PTCLDY    38  26  62 CALM      30.31F
MERIDIAN KEY   CLEAR     31  26  82 CALM      30.31R
MERIDIAN NAS   CLEAR     34  22  61 NW5       30.31R WCI  30
VICKSBURG      CLEAR     38  35  89 CALM      30.32F
$$

MSZ059>079-070600-
SOUTH MISSISSIPPI

CITY           SKY/WX    TMP DP  RH WIND       PRES   REMARKS
BROOKHAVEN     FAIR      36  32  87 N3        30.32S
HATTIESBURG    CLEAR     33  29  85 CALM      30.31R
MCCOMB         CLEAR     43  23  45 N7        30.29F
NATCHEZ        CLEAR     36  25  64 CALM      30.31S
PINE BELT      CLEAR     34  23  64 MISG      30.30S
$$

MSZ080>082-070600-
COASTAL MISSISSIPPI

CITY           SKY/WX    TMP DP  RH WIND       PRES   REMARKS
BILOXI         CLEAR     44  31  60 N3        30.27S
PASCAGOULA     PTCLDY    35  33  92 CALM      30.27F
GULFPORT       CLEAR     39  32  76 N5        30.28S
$$




USA.gov is the U.S. government's official web portal to all federal, state and local government web resources and services.